sat.trackr.live / text

‹ back to catalog

STARLINK-34611

NORAD 64918 · 2025-157Q

PAYLOAD ACTIVE UNKNOWN

§ Identity

Operator
Country
US
Launch date
2025-07-26
Launch site
AFETR
Launch vehicle
Mass (kg)
RCS (m²)

Purposes: comms

External: N2YO · Heavens-Above · Gunter

§ Orbital elements

Epoch: 2026-09-20T22:14:50.989920Z

Period
93.85 min
Inclination
53.1630°
Eccentricity
0.0001160
Mean motion
15.34392753 rev/d
Perigee alt
461.9 km
Apogee alt
463.5 km
Semi-major
6,840.9 km
B*
4.1779e-4
RAAN
155.4025°
Arg perigee
98.3699°
Mean anomaly
261.7435°
Rev number
6,606

§ Raw data

STARLINK-346111 64918U 25157Q   26263.92697905  .00013762  00000+0  41779-3 0  99932 64918  53.1630 155.4025 0001160  98.3699 261.7435 15.34392753 66060

JSON: /api/v1/satellites/64918 · /tle

For live sub-satellite position, see the globe view (requires WebGL).

§ Visibility from observer

Set your observer location to see the next 7 days of passes ≥ 10°. The values pass through the URL so the page stays shareable.

No JS? Fill the form by hand. The geolocation button needs JavaScript.